Location: downtown San Diego
(32.7310°N, 117.1990°W)
Time: 21:20:13
(UTC-07:00)

Meteor 2-21 - Pass Details

Date: 12 July 2018
Orbit: 933 x 967 km, 82.5° (Epoch: 22 July)

Event Time Altitude Azimuth Distance (km) Brightness Sun altitude
Rises 21:53:17 0° 352° (N) 3,611 8.3 -20.4°
Reaches altitude 10° 21:55:46 10° 352° (N) 2,667 7.5 -20.7°
Maximum altitude 22:01:53 85° 265° (W) 958 4.4 -21.6°
Enters shadow 22:04:50 33° 179° (S) 1,543 5.2 -22.0°
